Miniplon — FIDV — position and weather

sailwx.info

Track history (hours):
 
Tides and Currents Weather Stations Pressure Air Temp Water Temp Dewpoint Dewpoint Depression Visibility Wind Speed Wind Dir Waves Ship Positions

Miniplon

Last reported at 2014-Jul-18 07:03 UTC. Time now 2014-Jul-26 01:04 UTC.
Position N 46°41' W 001°57'.

Length 22 m.

Type: SAR. MMSI: 228024600.

Date/timePositionNaut miles runAvg speedWind from/ knotsBaromVisibWave heightAir tempDewpointWater temp
2014-Jul-18 07:03N 46°41' W 001°57'4 8.5
2014-Jul-18 06:33N 46°37' W 001°55'9 9.2
2014-Jul-18 05:33N 46°29' W 001°50'2 1.9
2014-Jul-18 04:32N 46°30' W 001°48'0 0.3
2014-Jul-18 03:32N 46°30' W 001°47'0 0.0
2014-Jul-18 02:32N 46°30' W 001°47'0 0.0
2014-Jul-18 01:32N 46°30' W 001°47'0 0.0
2014-Jul-18 00:32N 46°30' W 001°47'0 0.0
2014-Jul-17 23:32N 46°30' W 001°47'0 0.0
2014-Jul-17 22:32N 46°30' W 001°47'0 0.0
2014-Jul-17 21:32N 46°30' W 001°47'0 0.0
2014-Jul-17 20:32N 46°30' W 001°47'0 0.1
2014-Jul-17 19:31N 46°30' W 001°47'0 0.0
2014-Jul-17 18:33N 46°30' W 001°47'7 7.5
2014-Jul-17 17:33N 46°33' W 001°58'6 0.2
2014-Jul-16 06:15N 46°36' W 002°05'710.1
2014-Jul-16 05:33N 46°32' W 001°57'  
2014-Jul-11 17:32N 46°30' W 001°47'3 3.2
2014-Jul-11 16:33N 46°29' W 001°52'10 0.5
2014-Jul-10 19:22N 46°35' W 002°02'6 7.8
2014-Jul-10 18:33N 46°31' W 001°55'6 5.3
2014-Jul-10 17:31N 46°30' W 001°47'0 0.0
2014-Jul-09 08:28N 46°30' W 001°47'6 6.3
2014-Jul-09 07:32N 46°31' W 001°56'  
Track history (hours):
 
Tides and Currents Weather Stations Pressure Air Temp Water Temp Dewpoint Dewpoint Depression Visibility Wind Speed Wind Dir Waves Ship Positions

Miniplon

Last reported at 2014-Jul-18 07:03 UTC. Time now 2014-Jul-26 01:04 UTC.
Position N 46°41' W 001°57'.

Length 22 m.

Type: SAR. MMSI: 228024600.

Date/timePositionNaut miles runAvg speedWind from/ knotsBaromVisibWave heightAir tempDewpointWater temp
2014-Jul-18 07:03N 46°41' W 001°57'4 8.5
2014-Jul-18 06:33N 46°37' W 001°55'9 9.2
2014-Jul-18 05:33N 46°29' W 001°50'2 1.9
2014-Jul-18 04:32N 46°30' W 001°48'0 0.3
2014-Jul-18 03:32N 46°30' W 001°47'0 0.0
2014-Jul-18 02:32N 46°30' W 001°47'0 0.0
2014-Jul-18 01:32N 46°30' W 001°47'0 0.0
2014-Jul-18 00:32N 46°30' W 001°47'0 0.0
2014-Jul-17 23:32N 46°30' W 001°47'0 0.0
2014-Jul-17 22:32N 46°30' W 001°47'0 0.0
2014-Jul-17 21:32N 46°30' W 001°47'0 0.0
2014-Jul-17 20:32N 46°30' W 001°47'0 0.1
2014-Jul-17 19:31N 46°30' W 001°47'0 0.0
2014-Jul-17 18:33N 46°30' W 001°47'7 7.5
2014-Jul-17 17:33N 46°33' W 001°58'6 0.2
2014-Jul-16 06:15N 46°36' W 002°05'710.1
2014-Jul-16 05:33N 46°32' W 001°57'  
2014-Jul-11 17:32N 46°30' W 001°47'3 3.2
2014-Jul-11 16:33N 46°29' W 001°52'10 0.5
2014-Jul-10 19:22N 46°35' W 002°02'6 7.8
2014-Jul-10 18:33N 46°31' W 001°55'6 5.3
2014-Jul-10 17:31N 46°30' W 001°47'0 0.0
2014-Jul-09 08:28N 46°30' W 001°47'6 6.3
2014-Jul-09 07:32N 46°31' W 001°56'  

Dump ship's entire track history